Home   Weather   Magdeburg   Past weeks

Flag for Germany Past Weather in Magdeburg, Saxony-Anhalt, Germany — Yesterday and Last 2 Weeks

55 °F

More clouds than sun.

Feels Like: 53 °F
Forecast: 47 / 56 °F
Wind: 10 mph from West

Location: Braunschweig Wolfsburg

Current Time: Oct 27, 2016 at 5:02:10 PM

Latest Report: Oct 27, 2016 at 3:50 PM

Visibility: 4 mi

Pressure: 30.45 "Hg

Humidity: 82%

Dew Point: 50 °F

Location of MagdeburgLocation

Past Weather in Magdeburg — Graph


Magdeburg Temperature Yesterday

Maximum temperature yesterday: 52 °F (at 2:50 PM)
Minimum temperature yesterday: 36 °F (at 4:20 AM)
Average temperature yesterday: 46 °F

High & Low Weather Summary for the Past Weeks

High64 °F (Oct 16, 1:50 PM)100% (Oct 17, 6:50 AM)30.45 "Hg (Oct 17, 6:50 AM)
Low36 °F (Oct 26, 4:20 AM)56% (Oct 16, 1:50 PM)29.80 "Hg (Oct 19, 7:50 PM)
Average48 °F89%30.09 "Hg
* Reported Oct 12 3:20 PM — Oct 27 3:50 PM, Magdeburg, Weather by CustomWeather, © 2016

Note: Actual official high and low records may vary slightly from our data, if they occured in-between our weather recording intervals... More about our weather records


Magdeburg Weather History for the Previous 24 Hours

Scroll right to see more
Time TempWeatherWind HumidityBarometerVisibility
3:50 PM
Thu, Oct 27
55 °FMore clouds than sun.10 mph82%30.45 "Hg4 mi
3:20 PM55 °FOvercast.10 mph82%30.45 "Hg5 mi
2:50 PM55 °FOvercast.10 mph82%30.45 "Hg5 mi
2:20 PM55 °FOvercast.9 mph82%30.45 "Hg4 mi
1:50 PM54 °FOvercast.12 mph88%30.45 "Hg4 mi
1:20 PM54 °FOvercast.12 mph88%30.45 "Hg4 mi
12:50 PM54 °FFog.12 mph88%30.45 "Hg3 mi
12:20 PM54 °FFog.10 mph82%30.45 "Hg3 mi
11:50 AM52 °FFog.13 mph88%30.45 "Hg3 mi
11:20 AM52 °FFog.13 mph88%30.42 "Hg3 mi
10:50 AM52 °FFog.13 mph88%30.42 "Hg3 mi
10:20 AM52 °FFog.12 mph88%30.42 "Hg3 mi
9:50 AM52 °FFog.10 mph88%30.42 "Hg3 mi
9:20 AM50 °FFog.9 mph94%30.42 "Hg3 mi
8:50 AM50 °FFog.9 mph88%30.42 "Hg3 mi
8:20 AM50 °FFog.7 mph88%30.42 "Hg3 mi
7:50 AM48 °FFog.8 mph94%30.39 "Hg3 mi
7:20 AM48 °FFog.8 mph94%30.39 "Hg3 mi
6:50 AM48 °FFog.7 mph94%30.39 "Hg3 mi
11:50 PM
Wed, Oct 26
45 °FOvercast.No wind100%30.39 "Hg4 mi
11:20 PM46 °FMostly cloudy.No wind87%30.39 "Hg4 mi
10:50 PM46 °FOvercast.No wind93%30.39 "Hg4 mi
10:20 PM46 °FMostly cloudy.No wind93%30.39 "Hg4 mi
9:50 PM46 °FOvercast.2 mph93%30.39 "Hg4 mi
9:20 PM46 °FOvercast.3 mph93%30.39 "Hg4 mi
8:50 PM46 °FOvercast.3 mph93%30.39 "Hg4 mi
8:20 PM46 °FOvercast.3 mph87%30.39 "Hg6 mi
7:50 PM46 °FOvercast.3 mph93%30.39 "Hg6 mi
7:20 PM46 °FPassing clouds.No wind87%30.39 "HgN/A
6:50 PM46 °FPassing clouds.No wind93%30.39 "HgN/A
6:20 PM48 °FPassing clouds.No wind87%30.39 "HgN/A
5:50 PM48 °FPartly sunny.2 mph87%30.36 "HgN/A
5:20 PM50 °FPartly sunny.1 mph82%30.36 "HgN/A
Weather by CustomWeather, © 2016

See weather overviewHow to use our weather pages